GW7727 Weather Reports


Display with metric or nautical units.
time (UTC)temp
F
wind
direction
speed
MPH
gust
MPH
rain 1hr
in
rain 24hr
in
rain mn
in
humidity
%
barometer
mb
20260906170318 94 8 5.0 4.0 0.00 0.00 0.00 53 1015.9
20260906165814 95 24 2.0 2.0 0.00 0.00 0.00 53 1016.1
20260906165313 94 33 2.0 2.0 0.00 0.00 0.00 55 1016.1
20260906164814 94 15 1.0 1.0 0.00 0.00 0.00 54 1016.0
20260906164308 93 13 0.0 1.0 0.00 0.00 0.00 56 1016.1
20260906163804 92 12 1.0 2.0 0.00 0.00 0.00 58 1016.2
20260906163300 91 8 3.0 3.0 0.00 0.00 0.00 58 1016.0
20260906162757 93 26 3.0 4.0 0.00 0.00 0.00 56 1016.3
20260906162256 93 352 1.0 1.0 0.00 0.00 0.00 57 1016.2
20260906161756 93 9 4.0 4.0 0.00 0.00 0.00 57 1016.2
20260906161255 91 40 2.0 2.0 0.00 0.00 0.00 59 1016.1
20260906160754 90 34 1.0 1.0 0.00 0.00 0.00 60 1016.4
20260906160249 90 15 0.0 0.0 0.00 0.00 0.00 60 1016.2
20260906155747 90 6 2.0 1.0 0.00 0.00 0.00 61 1016.0
20260906155242 89 33 4.0 4.0 0.00 0.00 0.00 63 1016.1
20260906154737 88 30 2.0 3.0 0.00 0.00 0.00 64 1016.1
20260906154232 88 16 2.0 2.0 0.00 0.00 0.00 64 1016.2
20260906153730 88 10 2.0 2.0 0.00 0.00 0.00 62 1016.0
20260906153220 87 36 2.0 2.0 0.00 0.00 0.00 65 1016.1
20260906152715 87 265 1.0 1.0 0.00 0.00 0.00 64 1016.2
20260906152215 87 355 0.0 0.0 0.00 0.00 0.00 64 1016.0
20260906151709 87 9 2.0 2.0 0.00 0.00 0.00 66 1016.1
20260906151205 86 13 3.0 4.0 0.00 0.00 0.00 66 1015.9
20260906150700 86 52 2.0 2.0 0.00 0.00 0.00 67 1016.0
20260906150156 86 13 0.0 0.0 0.00 0.00 0.00 67 1016.0
20260906145655 86 22 2.0 3.0 0.00 0.00 0.00 67 1015.9
20260906145154 86 336 0.0 1.0 0.00 0.00 0.00 68 1016.0
20260906144654 85 9 1.0 1.0 0.00 0.00 0.00 68 1016.2
20260906144149 85 359 2.0 2.0 0.00 0.00 0.00 69 1016.1
20260906143649 85 359 1.0 1.0 0.00 0.00 0.00 69 1016.0
20260906143146 85 6 0.0 0.0 0.00 0.00 0.00 69 1016.0
20260906142645 84 46 2.0 3.0 0.00 0.00 0.00 70 1015.9
20260906142141 84 16 2.0 2.0 0.00 0.00 0.00 70 1016.0
20260906141639 84 272 1.0 1.0 0.00 0.00 0.00 70 1016.1
20260906141135 84 352 2.0 2.0 0.00 0.00 0.00 69 1016.0
20260906140634 83 16 0.0 0.0 0.00 0.00 0.00 72 1015.9
20260906140129 83 12 1.0 2.0 0.00 0.00 0.00 71 1016.0
20260906135626 83 13 1.0 1.0 0.00 0.00 0.00 72 1015.9
20260906135122 82 19 0.0 0.0 0.00 0.00 0.00 74 1015.9
20260906134618 81 0 1.0 1.0 0.00 0.00 0.00 74 1015.8
20260906134113 81 30 0.0 1.0 0.00 0.00 0.00 74 1015.9
20260906133609 81 22 2.0 3.0 0.00 0.00 0.00 75 1015.9
20260906133109 81 0 1.0 1.0 0.00 0.00 0.00 74 1015.9
20260906132604 81 15 0.0 0.0 0.00 0.00 0.00 75 1015.9
20260906132059 80 21 0.0 1.0 0.00 0.00 0.00 76 1015.9
20260906131555 80 352 0.0 1.0 0.00 0.00 0.00 76 1015.8
20260906131050 80 22 1.0 1.0 0.00 0.00 0.00 77 1015.6
20260906130549 79 15 1.0 1.0 0.00 0.00 0.00 77 1015.6
20260906130045 79 23 1.0 1.0 0.00 0.00 0.00 79 1015.5
20260906125542 78 34 1.0 2.0 0.00 0.00 0.00 79 1015.5
20260906125042 78 34 0.0 0.0 0.00 0.00 0.00 79 1015.6
20260906124538 78 30 0.0 0.0 0.00 0.00 0.00 79 1015.4
20260906124033 78 41 1.0 1.0 0.00 0.00 0.00 80 1015.3
20260906123532 77 41 0.0 1.0 0.00 0.00 0.00 80 1015.2
20260906123027 77 41 1.0 1.0 0.00 0.00 0.00 80 1015.1
20260906122521 77 37 1.0 1.0 0.00 0.00 0.00 80 1015.1
20260906122017 77 35 0.0 1.0 0.00 0.00 0.00 81 1015.0
20260906121513 77 35 1.0 1.0 0.00 0.00 0.00 81 1015.1
20260906121010 77 35 1.0 1.0 0.00 0.00 0.00 81 1015.1
20260906120509 77 35 0.0 0.0 0.00 0.00 0.00 81 1015.1
20260906120008 77 35 0.0 0.0 0.00 0.00 0.00 82 1014.6
20260906115502 76 35 0.0 0.0 0.00 0.00 0.00 82 1014.9
20260906115002 77 35 0.0 0.0 0.00 0.00 0.00 82 1015.0
20260906114456 77 35 0.0 0.0 0.00 0.00 0.00 82 1015.0
20260906113953 77 35 1.0 1.0 0.00 0.00 0.00 82 1014.9
20260906113451 77 35 1.0 1.0 0.00 0.00 0.00 82 1014.8
20260906112946 77 35 0.0 0.0 0.00 0.00 0.00 82 1014.5
20260906112442 77 34 1.0 1.0 0.00 0.00 0.00 82 1014.6
20260906111938 77 34 1.0 1.0 0.00 0.00 0.00 81 1014.8
20260906111436 77 34 0.0 0.0 0.00 0.00 0.00 81 1014.6
20260906110931 77 34 1.0 1.0 0.00 0.00 0.00 80 1014.5
20260906110427 77 34 0.0 0.0 0.00 0.00 0.00 80 1014.6
20260906105926 77 34 1.0 1.0 0.00 0.00 0.00 81 1014.6
20260906105422 77 34 1.0 1.0 0.00 0.00 0.00 82 1014.3
20260906104918 77 34 0.0 0.0 0.00 0.00 0.00 82 1014.5
20260906104416 77 34 0.0 0.0 0.00 0.00 0.00 83 1014.6
20260906103915 77 34 1.0 1.0 0.00 0.00 0.00 83 1014.6
20260906103414 77 34 0.0 0.0 0.00 0.00 0.00 84 1014.6
20260906102910 76 34 1.0 1.0 0.00 0.00 0.00 85 1014.5
20260906102409 77 34 0.0 0.0 0.00 0.00 0.00 85 1014.5
20260906101904 77 34 0.0 0.0 0.00 0.00 0.00 83 1014.6
20260906101359 77 34 0.0 0.0 0.00 0.00 0.00 82 1014.5
20260906100854 78 34 0.0 0.0 0.00 0.00 0.00 81 1014.5
20260906100353 78 34 1.0 1.0 0.00 0.00 0.00 81 1014.4
20260906095848 78 34 0.0 0.0 0.00 0.00 0.00 80 1014.2
20260906095344 78 34 0.0 0.0 0.00 0.00 0.00 80 1014.3
20260906094844 77 34 0.0 0.0 0.00 0.00 0.00 80 1014.2
20260906094339 77 34 1.0 1.0 0.00 0.00 0.00 81 1014.1
20260906093835 77 34 0.0 0.0 0.00 0.00 0.00 81 1014.1
20260906093331 78 34 0.0 0.0 0.00 0.00 0.00 81 1014.1
20260906092825 78 34 1.0 1.0 0.00 0.00 0.00 80 1013.9
20260906092325 78 34 1.0 1.0 0.00 0.00 0.00 79 1014.1
20260906091821 78 34 1.0 1.0 0.00 0.00 0.00 79 1013.9
20260906091317 78 34 1.0 1.0 0.00 0.00 0.00 79 1013.8
20260906090814 78 34 1.0 1.0 0.00 0.00 0.00 80 1013.8
20260906090312 78 34 1.0 1.0 0.00 0.00 0.00 82 1013.8
20260906085807 78 34 1.0 1.0 0.00 0.00 0.00 82 1014.0
20260906085307 78 34 0.0 0.0 0.00 0.00 0.00 81 1013.9
20260906084801 78 34 1.0 1.0 0.00 0.00 0.00 80 1013.7
20260906084300 78 34 0.0 0.0 0.00 0.00 0.00 81 1013.8
20260906083755 77 34 1.0 1.0 0.00 0.00 0.00 83 1013.7
20260906083250 76 34 0.0 0.0 0.00 0.00 0.00 87 1013.6
20260906082745 77 34 0.0 0.0 0.00 0.00 0.00 88 1013.6
20260906082240 77 34 0.0 0.0 0.00 0.00 0.00 87 1013.8
20260906081736 77 34 0.0 0.0 0.00 0.00 0.00 86 1013.6
20260906081231 77 34 0.0 0.0 0.00 0.00 0.00 85 1013.6
20260906080728 78 34 0.0 0.0 0.00 0.00 0.00 85 1013.5
20260906080224 78 34 0.0 0.0 0.00 0.00 0.00 84 1013.6
20260906075724 78 34 0.0 0.0 0.00 0.00 0.00 84 1013.7
20260906075224 78 34 0.0 0.0 0.00 0.00 0.00 83 1013.5
20260906074719 78 34 0.0 0.0 0.00 0.00 0.00 82 1013.6
20260906074218 78 34 0.0 0.0 0.00 0.00 0.00 81 1013.6
20260906073713 79 34 0.0 0.0 0.00 0.00 0.00 80 1013.6
20260906073208 80 34 0.0 0.0 0.00 0.00 0.00 79 1013.6
20260906072704 80 34 0.0 0.0 0.00 0.00 0.00 78 1013.4
20260906072159 80 34 0.0 0.0 0.00 0.00 0.00 77 1013.6
20260906071655 80 34 0.0 0.0 0.00 0.00 0.00 77 1013.8
20260906071154 80 34 1.0 1.0 0.00 0.00 0.00 77 1013.6
20260906070652 80 34 0.0 1.0 0.00 0.00 0.00 77 1013.6
20260906070147 80 34 0.0 0.0 0.00 0.00 0.00 77 1013.7
20260906065646 80 34 0.0 0.0 0.00 0.00 0.00 78 1013.9
20260906065142 80 34 0.0 0.0 0.00 0.00 0.00 77 1013.8
20260906064637 81 34 0.0 0.0 0.00 0.00 0.00 76 1013.8
20260906064133 81 34 1.0 1.0 0.00 0.00 0.00 76 1013.9
20260906063628 81 32 1.0 1.0 0.00 0.00 0.00 75 1014.0
20260906063124 81 31 0.0 0.0 0.00 0.00 0.00 75 1014.2
20260906062619 82 31 0.0 0.0 0.00 0.00 0.00 74 1014.1
20260906062118 82 31 0.0 0.0 0.00 0.00 0.00 73 1014.1
20260906061614 82 32 0.0 0.0 0.00 0.00 0.00 72 1013.9
20260906061114 82 18 1.0 1.0 0.00 0.00 0.00 72 1013.9
20260906060611 82 17 0.0 0.0 0.00 0.00 0.00 71 1014.2
20260906060108 82 14 1.0 1.0 0.00 0.00 0.00 71 1014.1
20260906055603 82 358 0.0 0.0 0.00 0.00 0.00 70 1014.4
20260906055058 82 331 0.0 0.0 0.00 0.00 0.00 69 1014.1
20260906054558 82 331 0.0 0.0 0.00 0.00 0.00 68 1014.3
20260906054053 82 331 0.0 0.0 0.00 0.00 0.00 67 1014.3
20260906053550 81 331 0.0 0.0 0.00 0.00 0.00 68 1014.1
20260906053045 81 331 0.0 0.0 0.00 0.00 0.00 69 1014.1
20260906052540 81 331 0.0 0.0 0.00 0.00 0.00 69 1014.3
20260906052038 81 331 0.0 0.0 0.00 0.00 0.00 69 1013.9
20260906051533 81 331 0.0 0.0 0.00 0.00 0.00 68 1014.0
20260906051028 82 331 0.0 0.0 0.00 0.00 0.00 68 1014.1
20260906050523 82 331 0.0 0.0 0.00 0.00 0.00 67 1014.3
20260906050018 82 331 0.0 0.0 0.00 0.00 0.00 67 1014.1
20260906045516 82 331 0.0 0.0 0.00 0.00 0.00 67 1014.1
20260906045012 82 331 0.0 0.0 0.00 0.00 0.00 65 1014.0
20260906044508 83 331 0.0 0.0 0.00 0.00 0.00 64 1014.2
20260906044003 83 331 0.0 0.0 0.00 0.00 0.00 65 1014.2
20260906043459 83 331 0.0 0.0 0.00 0.00 0.00 64 1014.1
20260906042954 84 331 0.0 0.0 0.00 0.00 0.00 64 1014.1
20260906042453 84 331 0.0 0.0 0.00 0.00 0.00 63 1014.3
20260906041953 84 331 0.0 0.0 0.00 0.00 0.00 63 1014.3
20260906041450 83 331 1.0 1.0 0.00 0.00 0.00 63 1014.4
20260906040949 83 331 0.0 0.0 0.00 0.00 0.00 63 1014.1
20260906040444 83 331 0.0 0.0 0.00 0.00 0.00 63 1014.2
20260906035939 83 331 0.0 0.0 0.00 0.00 0.00 64 1014.1
20260906035435 83 331 0.0 0.0 0.00 0.00 0.00 65 1014.2
20260906034930 83 331 0.0 0.0 0.00 0.00 0.00 66 1013.8
20260906034425 83 331 0.0 0.0 0.00 0.00 0.00 66 1013.9
20260906033920 82 331 0.0 0.0 0.00 0.00 0.00 67 1014.0
20260906033421 82 26 0.0 0.0 0.00 0.00 0.00 68 1013.8
20260906032916 82 26 0.0 0.0 0.00 0.00 0.00 66 1013.6
20260906032413 83 26 0.0 0.0 0.00 0.00 0.00 65 1013.7
20260906031913 83 26 0.0 0.0 0.00 0.00 0.00 64 1013.8
20260906031408 84 348 0.0 0.0 0.00 0.00 0.00 63 1013.7
20260906030903 84 348 0.0 0.0 0.00 0.00 0.00 62 1013.7
20260906030358 85 348 0.0 0.0 0.00 0.00 0.00 61 1013.7
20260906025853 85 348 0.0 0.0 0.00 0.00 0.00 59 1013.7
20260906025353 86 348 0.0 0.0 0.00 0.00 0.00 59 1013.5
20260906024851 86 348 0.0 0.0 0.00 0.00 0.00 58 1013.5
20260906024351 86 347 0.0 0.0 0.00 0.00 0.00 57 1013.6
20260906023846 87 348 0.0 0.0 0.00 0.00 0.00 57 1013.5
20260906023342 87 12 0.0 0.0 0.00 0.00 0.00 56 1013.5
20260906022837 87 12 0.0 0.0 0.00 0.00 0.00 55 1013.1
20260906022337 87 12 0.0 0.0 0.00 0.00 0.00 55 1013.2
20260906021833 88 12 0.0 0.0 0.00 0.00 0.00 54 1013.2
20260906021333 88 11 0.0 0.0 0.00 0.00 0.00 53 1013.1
20260906020828 88 6 0.0 0.0 0.00 0.00 0.00 53 1013.1
20260906020327 88 6 1.0 1.0 0.00 0.00 0.00 53 1012.7
20260906015822 88 6 2.0 2.0 0.00 0.00 0.00 53 1012.8
20260906015321 87 3 1.0 1.0 0.00 0.00 0.00 54 1012.8
20260906014820 87 352 0.0 0.0 0.00 0.00 0.00 54 1012.6
20260906014316 88 352 0.0 0.0 0.00 0.00 0.00 53 1012.7
20260906013812 88 352 0.0 0.0 0.00 0.00 0.00 53 1012.5
20260906013307 88 352 0.0 0.0 0.00 0.00 0.00 52 1012.5
20260906012802 88 352 0.0 0.0 0.00 0.00 0.00 52 1012.6
20260906012257 89 19 0.0 0.0 0.00 0.00 0.00 51 1012.5
20260906011752 89 19 0.0 0.0 0.00 0.00 0.00 51 1012.6
20260906011252 89 19 0.0 0.0 0.00 0.00 0.00 50 1012.4
20260906010748 90 19 0.0 0.0 0.00 0.00 0.00 49 1012.4
20260906010244 90 19 0.0 0.0 0.00 0.00 0.00 48 1012.4
20260906005739 90 351 0.0 0.0 0.00 0.00 0.00 49 1012.5
20260906005238 90 351 0.0 0.0 0.00 0.00 0.00 48 1012.3
20260906004737 91 351 0.0 0.0 0.00 0.00 0.00 47 1012.3
20260906004233 92 5 0.0 0.0 0.00 0.00 0.00 46 1012.3
20260906003733 92 5 0.0 0.0 0.00 0.00 0.00 45 1012.3
20260906003229 92 11 1.0 1.0 0.00 0.00 0.00 44 1012.4
20260906002729 93 4 0.0 0.0 0.00 0.00 0.00 44 1012.3
20260906002229 94 4 0.0 0.0 0.00 0.00 0.00 43 1012.3
20260906001724 94 1 1.0 1.0 0.00 0.00 0.00 41 1012.3
20260906001219 95 7 0.0 0.0 0.00 0.00 0.00 41 1012.2
20260906000714 96 3 0.0 0.0 0.00 0.00 0.00 40 1012.5
20260906000212 96 16 1.0 1.0 0.00 0.00 0.00 38 1012.4
20260905235709 97 22 1.0 1.0 0.00 0.00 0.00 38 1012.6
20260905235204 97 9 2.0 2.0 0.00 0.00 0.00 37 1012.3
20260905234659 98 38 2.0 2.0 0.00 0.00 0.00 37 1012.4
20260905234154 98 1 1.0 1.0 0.00 0.00 0.00 37 1012.2
20260905233649 98 6 2.0 2.0 0.00 0.00 0.00 37 1012.5
20260905233149 98 15 2.0 2.0 0.00 0.00 0.00 36 1012.3
20260905232644 98 6 1.0 1.0 0.00 0.00 0.00 36 1012.2
20260905232140 99 4 2.0 3.0 0.00 0.00 0.00 35 1012.4
20260905231635 99 19 3.0 3.0 0.00 0.00 0.00 35 1012.4
20260905231131 100 18 4.0 4.0 0.00 0.00 0.00 34 1012.2
20260905230627 100 32 3.0 4.0 0.00 0.00 0.00 34 1012.2
20260905230125 100 356 5.0 6.0 0.00 0.00 0.00 33 1012.2
20260905225625 100 17 3.0 4.0 0.00 0.00 0.00 33 1012.1
20260905225120 100 19 3.0 3.0 0.00 0.00 0.00 33 1012.1
20260905224619 100 10 6.0 7.0 0.00 0.00 0.00 33 1012.4
20260905224119 101 359 4.0 4.0 0.00 0.00 0.00 33 1012.0
20260905223616 101 6 5.0 7.0 0.00 0.00 0.00 32 1012.1
20260905223112 101 26 5.0 7.0 0.00 0.00 0.00 33 1012.2
20260905222612 102 19 2.0 3.0 0.00 0.00 0.00 32 1012.1
20260905222108 101 27 2.0 2.0 0.00 0.00 0.00 33 1012.1
20260905221603 101 358 3.0 3.0 0.00 0.00 0.00 32 1012.1
20260905221100 102 352 5.0 4.0 0.00 0.00 0.00 32 1012.2
20260905220555 102 2 5.0 6.0 0.00 0.00 0.00 31 1012.2
20260905220051 102 319 4.0 7.0 0.00 0.00 0.00 32 1012.3
20260905215550 101 359 5.0 6.0 0.00 0.00 0.00 32 1012.3
20260905215047 102 337 5.0 8.0 0.00 0.00 0.00 32 1012.3
20260905214543 103 354 2.0 1.0 0.00 0.00 0.00 33 1012.5
20260905214043 102 348 1.0 1.0 0.00 0.00 0.00 32 1012.6
20260905213538 102 11 0.0 0.0 0.00 0.00 0.00 34 1012.6
20260905213033 101 358 6.0 8.0 0.00 0.00 0.00 32 1012.5
20260905212528 101 342 6.0 6.0 0.00 0.00 0.00 32 1012.4
20260905212028 103 353 6.0 8.0 0.00 0.00 0.00 31 1012.5
20260905211523 103 320 0.0 0.0 0.00 0.00 0.00 31 1012.6
20260905211019 102 19 0.0 1.0 0.00 0.00 0.00 33 1012.6
20260905210514 102 16 4.0 6.0 0.00 0.00 0.00 32 1012.8
20260905210009 103 333 3.0 3.0 0.00 0.00 0.00 31 1012.9
20260905205508 104 357 5.0 6.0 0.00 0.00 0.00 30 1012.6
20260905205007 104 6 0.0 1.0 0.00 0.00 0.00 30 1012.8
20260905204503 103 352 0.0 0.0 0.00 0.00 0.00 32 1012.8
20260905204003 103 16 4.0 4.0 0.00 0.00 0.00 32 1012.8
20260905203457 102 18 4.0 4.0 0.00 0.00 0.00 31 1012.9
20260905202953 102 291 2.0 2.0 0.00 0.00 0.00 31 1012.9
20260905202447 102 320 3.0 7.0 0.00 0.00 0.00 31 1013.1
20260905175406 99 303 1.0 2.0 0.00 0.00 0.00 37 1014.9
20260905174901 99 303 1.0 2.0 0.00 0.00 0.00 37 1014.9
20260905174357 100 313 1.0 1.0 0.00 0.00 0.00 36 1015.0
20260905173852 99 346 2.0 3.0 0.00 0.00 0.00 37 1015.2
20260905173348 99 306 3.0 4.0 0.00 0.00 0.00 37 1015.4
20260905172843 99 264 3.0 3.0 0.00 0.00 0.00 39 1015.0
20260905172341 98 229 2.0 2.0 0.00 0.00 0.00 39 1015.1
20260905171837 98 359 2.0 2.0 0.00 0.00 0.00 39 1015.2
20260905171334 98 211 3.0 4.0 0.00 0.00 0.00 38 1015.3
20260905170830 97 303 2.0 2.0 0.00 0.00 0.00 40 1015.3